STARLINK-34594 (65088 NORAD) Tracking and Keplerian Element Data

This shows tracking and keplerian element data for the satellite.

Feedback or suggestion? Click here.




ElementValue
Catalog65088
NameSTARLINK-34594
Epoch Orbit2129
Epoch Day354.1230482
Epoch Year2025
RAAN36.5387
Inclination53.1607
Eccentricity3.92E-05
Argument of Perigee332.9213
Mean Anonmoly27.1768
Mean Motion15.30207183
Decay Rate0.00016246
L11 65088U 25167L 25354.12304820 .00016246 00000+0 55931-3 0 9991
L22 65088 53.1607 36.5387 0000392 332.9213 27.1768 15.30207183 21295



Live tracking and technical data element details for STARLINK-34594 (NORAD 65088). STARLINK-34594 can be tracked NOW for your location showing map with azimuth and elevation plus other details from your city location.







IsCatalogInMostPopularTable: catalog: 65088, numindb: 7
Update: records affected: 1



GetName: 65088 STARLINK-34594

Hit Count: updated at: Tue, 21 Apr 2026 19:51:11 GMT